• In Uzbekistan
  • List of Countries
  • For 7 days
  • Water Temperature
  • Satellite Maps
  • Weather Map
  • Weather Widgets
  • user-avatar
    Login

    Hourly Weather Sumgayit

    Today, 25 February, Saturday

    Time Temperature Precipitation Wind Pressure Humidity
    00:00 +5°C° 0 mm 4 mps 744 mmHg 69%
    01:00 +5°C° 0 mm 4 mps 744 mmHg 67%
    02:00 +5°C° 0 mm 5 mps 744 mmHg 66%
    03:00 +5°C° 0 mm 5 mps 744 mmHg 64%
    04:00 +5°C° 0 mm 5 mps 744 mmHg 64%
    05:00 +5°C° 0 mm 5 mps 744 mmHg 63%
    06:00 +5°C° 0 mm 5 mps 744 mmHg 63%
    07:00 +6°C° 0 mm 5 mps 744 mmHg 59%
    08:00 +7°C° 0 mm 6 mps 744 mmHg 55%
    09:00 +9°C° 0 mm 6 mps 744 mmHg 51%
    10:00 +10°C° 0 mm 6 mps 744 mmHg 48%
    11:00 +11°C° 0 mm 7 mps 743 mmHg 44%
    12:00 +14°C° 0 mm 7 mps 743 mmHg 41%
    13:00 +13°C° 0 mm 8 mps 743 mmHg 41%
    14:00 +13°C° 0 mm 8 mps 742 mmHg 40%
    15:00 +13°C° 0 mm 8 mps 742 mmHg 40%
    16:00 +12°C° 0 mm 8 mps 741 mmHg 44%
    17:00 +11°C° 0 mm 8 mps 741 mmHg 49%
    18:00 +9°C° 0 mm 7 mps 741 mmHg 53%
    19:00 +9°C° 0 mm 7 mps 741 mmHg 56%
    20:00 +8°C° 0 mm 7 mps 741 mmHg 58%
    21:00 +7°C° 0 mm 8 mps 740 mmHg 61%
    22:00 +6°C° 0 mm 7 mps 740 mmHg 61%
    23:00 +6°C° 0 mm 7 mps 739 mmHg 61%

    Tomorrow, 26 February, Sunday

    Time Temperature Precipitation Wind Pressure Humidity
    00:00 +6°C° 0 mm 7 mps 739 mmHg 61%
    01:00 +6°C° 0 mm 8 mps 738 mmHg 59%
    02:00 +6°C° 0 mm 8 mps 738 mmHg 57%
    03:00 +5°C° 0 mm 8 mps 737 mmHg 55%
    04:00 +5°C° 0 mm 8 mps 737 mmHg 54%
    05:00 +5°C° 0 mm 8 mps 737 mmHg 53%
    06:00 +5°C° 0 mm 7 mps 737 mmHg 52%
    07:00 +6°C° 0 mm 7 mps 737 mmHg 47%
    08:00 +9°C° 0 mm 7 mps 738 mmHg 42%
    09:00 +10°C° 0 mm 7 mps 738 mmHg 37%
    10:00 +10°C° 0 mm 8 mps 739 mmHg 40%
    11:00 +11°C° 0 mm 8 mps 739 mmHg 43%
    12:00 +12°C° 0 mm 8 mps 740 mmHg 47%
    13:00 +11°C° 0 mm 10 mps 741 mmHg 51%
    14:00 +9°C° 0 mm 11 mps 741 mmHg 55%
    15:00 +8°C° 0 mm 12 mps 742 mmHg 59%
    16:00 +5°C° 0 mm 12 mps 743 mmHg 62%
    17:00 +3°C° 0 mm 13 mps 744 mmHg 66%
    18:00 +1°C° 0 mm 13 mps 745 mmHg 69%
    19:00 0°C° 0 mm 12 mps 746 mmHg 66%
    20:00 0°C° 0 mm 12 mps 747 mmHg 63%
    21:00 -1°C° 0 mm 11 mps 748 mmHg 61%
    22:00 0°C° 0 mm 10 mps 748 mmHg 59%
    23:00 0°C° 0 mm 9 mps 748 mmHg 58%

    Day after tomorrow, 27 February, Monday

    Time Temperature Precipitation Wind Pressure Humidity
    00:00 0°C° 0 mm 7 mps 749 mmHg 57%
    01:00 +1°C° 0 mm 6 mps 749 mmHg 58%
    02:00 +1°C° 0 mm 5 mps 749 mmHg 60%
    03:00 +1°C° 0 mm 4 mps 749 mmHg 61%
    04:00 +2°C° 0 mm 3 mps 749 mmHg 62%
    05:00 +2°C° 0 mm 3 mps 749 mmHg 63%
    06:00 +3°C° 0 mm 2 mps 749 mmHg 65%
    07:00 +3°C° 0 mm 2 mps 749 mmHg 62%
    08:00 +3°C° 0 mm 3 mps 749 mmHg 60%
    09:00 +3°C° 0 mm 3 mps 749 mmHg 57%
    10:00 +4°C° 0 mm 4 mps 749 mmHg 56%
    11:00 +5°C° 0 mm 5 mps 748 mmHg 56%
    12:00 +6°C° 0 mm 5 mps 748 mmHg 55%
    13:00 +5°C° 0 mm 6 mps 747 mmHg 56%
    14:00 +5°C° 0 mm 6 mps 746 mmHg 57%
    15:00 +5°C° 0 mm 7 mps 746 mmHg 58%
    16:00 +5°C° 0 mm 6 mps 745 mmHg 63%
    17:00 +4°C° 0 mm 6 mps 745 mmHg 67%
    18:00 +4°C° 0 mm 6 mps 745 mmHg 71%
    19:00 +3°C° 0 mm 6 mps 745 mmHg 74%
    20:00 +3°C° 0 mm 6 mps 745 mmHg 77%
    21:00 +3°C° 0 mm 6 mps 745 mmHg 80%
    22:00 +2°C° 0 mm 6 mps 744 mmHg 82%
    23:00 +2°C° 0 mm 5 mps 744 mmHg 85%

    28 February, Tuesday

    Time Temperature Precipitation Wind Pressure Humidity
    00:00 +2°C° 0 mm 5 mps 744 mmHg 88%
    01:00 +2°C° 0 mm 5 mps 743 mmHg 88%
    02:00 +1°C° 0 mm 4 mps 743 mmHg 88%
    03:00 +1°C° 0 mm 4 mps 743 mmHg 88%
    04:00 +2°C° 0 mm 3 mps 743 mmHg 88%
    05:00 +3°C° 0 mm 2 mps 744 mmHg 87%
    06:00 +3°C° 0 mm 2 mps 744 mmHg 86%
    07:00 +4°C° 0 mm 2 mps 745 mmHg 79%
    08:00 +6°C° 0 mm 1 mps 745 mmHg 71%
    09:00 +8°C° 0 mm 1 mps 746 mmHg 63%
    10:00 +8°C° 0 mm 2 mps 746 mmHg 59%
    11:00 +9°C° 0 mm 2 mps 746 mmHg 55%
    12:00 +10°C° 0 mm 2 mps 746 mmHg 50%
    13:00 +10°C° 0 mm 2 mps 746 mmHg 50%
    14:00 +10°C° 0 mm 3 mps 745 mmHg 51%
    15:00 +10°C° 0 mm 3 mps 745 mmHg 51%
    16:00 +9°C° 0 mm 3 mps 745 mmHg 56%
    17:00 +8°C° 0 mm 2 mps 746 mmHg 62%
    18:00 +7°C° 0 mm 2 mps 746 mmHg 67%
    19:00 +6°C° 0 mm 2 mps 746 mmHg 70%
    20:00 +6°C° 0 mm 2 mps 746 mmHg 73%
    21:00 +6°C° 0 mm 1 mps 747 mmHg 75%
    22:00 +6°C° 0 mm 1 mps 747 mmHg 76%
    23:00 +6°C° 0 mm 1 mps 746 mmHg 77%

    1 March, Wednesday

    Time Temperature Precipitation Wind Pressure Humidity
    00:00 +6°C° 0 mm 1 mps 746 mmHg 77%
    01:00 +5°C° 0 mm 1 mps 746 mmHg 76%
    02:00 +5°C° 0 mm 1 mps 746 mmHg 76%
    03:00 +5°C° 0 mm 1 mps 746 mmHg 75%
    04:00 +4°C° 0 mm 2 mps 746 mmHg 74%
    05:00 +4°C° 0 mm 2 mps 746 mmHg 73%
    06:00 +4°C° 0 mm 2 mps 746 mmHg 73%
    07:00 +4°C° 0 mm 3 mps 746 mmHg 68%
    08:00 +7°C° 0 mm 3 mps 747 mmHg 64%
    09:00 +8°C° 0 mm 4 mps 747 mmHg 59%
    10:00 +10°C° 0 mm 4 mps 746 mmHg 57%
    11:00 +10°C° 0 mm 5 mps 746 mmHg 55%
    12:00 +12°C° 0 mm 5 mps 746 mmHg 53%
    13:00 +12°C° 0 mm 5 mps 745 mmHg 53%
    14:00 +11°C° 0 mm 6 mps 745 mmHg 54%
    15:00 +11°C° 0 mm 6 mps 744 mmHg 54%
    16:00 +10°C° 0 mm 5 mps 744 mmHg 60%
    17:00 +9°C° 0 mm 5 mps 744 mmHg 66%
    18:00 +7°C° 0 mm 5 mps 744 mmHg 72%
    19:00 +7°C° 0 mm 4 mps 744 mmHg 75%
    20:00 +6°C° 0 mm 4 mps 744 mmHg 78%
    21:00 +7°C° 0 mm 3 mps 744 mmHg 81%
    22:00 +7°C° 0 mm 3 mps 743 mmHg 81%
    23:00 +5°C° 0 mm 3 mps 743 mmHg 81%

    2 March, Thursday

    Time Temperature Precipitation Wind Pressure Humidity
    00:00 +5°C° 0 mm 3 mps 742 mmHg 82%
    01:00 +5°C° 0 mm 3 mps 742 mmHg 82%
    02:00 +5°C° 0 mm 3 mps 742 mmHg 81%
    03:00 +5°C° 0 mm 3 mps 741 mmHg 81%
    04:00 +5°C° 0 mm 3 mps 741 mmHg 81%
    05:00 +4°C° 0 mm 3 mps 741 mmHg 82%
    06:00 +4°C° 0 mm 3 mps 741 mmHg 82%
    07:00 +7°C° 0 mm 3 mps 741 mmHg 76%
    08:00 +7°C° 0 mm 4 mps 741 mmHg 70%
    09:00 +8°C° 0 mm 4 mps 741 mmHg 64%
    10:00 +10°C° 0 mm 4 mps 740 mmHg 60%
    11:00 +12°C° 0 mm 4 mps 740 mmHg 55%
    12:00 +13°C° 0 mm 5 mps 739 mmHg 50%
    13:00 +13°C° 0 mm 5 mps 739 mmHg 49%
    14:00 +13°C° 0 mm 5 mps 738 mmHg 49%
    15:00 +13°C° 0 mm 5 mps 738 mmHg 48%
    16:00 +12°C° 0 mm 4 mps 738 mmHg 53%
    17:00 +11°C° 0 mm 4 mps 738 mmHg 58%
    18:00 +10°C° 0 mm 3 mps 738 mmHg 63%
    19:00 +9°C° 0 mm 3 mps 738 mmHg 64%
    20:00 +9°C° 0 mm 2 mps 738 mmHg 65%
    21:00 +8°C° 0 mm 2 mps 738 mmHg 66%
    22:00 +8°C° 0 mm 2 mps 737 mmHg 66%
    23:00 +8°C° 0 mm 2 mps 737 mmHg 65%
    Show more